Ketchikan, AK

5:10 PM AKST on February 20, 2019 (GMT -0900)
Ketchikan International

Weather History for PAKT - January, 2019

Change the Weather History Date:

Thursday, January 31, 2019

  Actual Average Record
Temperature  
Mean Temperature 40 °F -  
Max Temperature 43 °F 39 °F 58 °F (1993)
Min Temperature 37 °F 27 °F 7 °F (1989)
Degree Days  
Heating Degree Days 25    
Moisture  
Dew Point 40 °F    
Average Humidity 96    
Maximum Humidity 100    
Minimum Humidity 87    
Precipitation  
Precipitation 0.28 in - - ()
Sea Level Pressure  
Sea Level Pressure 29.58 in    
Wind  
Wind Speed 7 mph (SE)    
Max Wind Speed 10 mph    
Max Gust Speed -    
Visibility 5 miles    
Events Rain    
Averages and records for this station are not official NWS values.
T = Trace of Precipitation, MM = Missing Value Source: NWS Daily Summary

Daily Weather History Graph

Daily Weather History Graph

Search for Another Location

Airport or City:

Astronomy

Jan. 31, 2019 Rise Set
Actual Time 7:40 AM AKST 4:20 PM AKST
Civil Twilight 7:00 AM AKST 5:00 PM AKST
Nautical Twilight 6:16 AM AKST 5:45 PM AKST
Astronomical Twilight 5:33 AM AKST 6:28 PM AKST
Moon 4:53 AM AKST (1/31) 12:41 PM AKST (1/31)
Length of Visible Light 10h 00m
Length of Day
8h 39m
Waning Crescent, 14% of the Moon is Illuminated
Jan 31
Waning Crescent
Feb 4
New
Feb 12
First Quarter
Feb 19
Full
Feb 26
Last Quarter

Hourly Weather History & Observations

Time (AKST) Temp. Windchill Dew Point Humidity Pressure Visibility Wind Dir Wind Speed Gust Speed Precip Events Conditions
12:32 AM 42.1 °F 36.1 °F 42.1 °F 100% 29.73 in 2.5 mi SE 10.4 mph - 0.04 in Rain Light Rain
12:53 AM 43.0 °F 37.2 °F 42.1 °F 97% 29.73 in 2.0 mi SE 10.4 mph - 0.05 in Rain Light Rain
1:06 AM 42.1 °F 36.1 °F 42.1 °F 100% 29.72 in 2.5 mi SE 10.4 mph - 0.01 in Rain Light Rain
1:08 AM 42.1 °F 36.1 °F 42.1 °F 100% 29.72 in 3.0 mi SE 10.4 mph - 0.01 in Rain Light Rain
1:10 AM 42.1 °F 36.1 °F 42.1 °F 100% 29.71 in 2.5 mi SE 10.4 mph - 0.01 in Rain Light Rain
1:30 AM 42.1 °F 36.6 °F 41.0 °F 96% 29.71 in 1.8 mi SE 9.2 mph - 0.02 in Rain Light Rain
1:49 AM 42.8 °F 37.0 °F 42.8 °F 100% 29.71 in 1.8 mi SE 10.4 mph - 0.03 in Rain Light Rain
1:53 AM 42.1 °F 36.1 °F 42.1 °F 100% 29.72 in 1.8 mi SE 10.4 mph - 0.04 in Rain Light Rain
2:32 AM 42.1 °F 37.1 °F 42.1 °F 100% 29.69 in 1.8 mi SE 8.1 mph - 0.02 in Rain Light Rain
2:46 AM 42.1 °F 37.1 °F 41.0 °F 96% 29.69 in 2.0 mi SE 8.1 mph - 0.02 in Rain Light Rain
2:53 AM 42.1 °F 37.1 °F 41.0 °F 96% 29.69 in 2.5 mi SE 8.1 mph - 0.03 in Rain Light Rain
3:32 AM 42.1 °F 37.7 °F 41.0 °F 96% 29.67 in 2.5 mi SE 6.9 mph - 0.01 in Rain Light Rain
3:53 AM 42.1 °F 36.6 °F 41.0 °F 96% 29.67 in 2.5 mi SE 9.2 mph - 0.02 in Rain Light Rain
4:26 AM 42.1 °F 37.7 °F 42.1 °F 100% 29.66 in 2.0 mi SE 6.9 mph - 0.01 in Rain Light Rain
4:53 AM 42.1 °F 37.7 °F 41.0 °F 96% 29.65 in 2.0 mi SE 6.9 mph - 0.02 in Rain Light Rain
5:03 AM 42.1 °F 37.7 °F 41.0 °F 96% 29.65 in 2.5 mi SE 6.9 mph - 0.00 in   Overcast
5:24 AM 42.1 °F 39.2 °F 42.1 °F 100% 29.64 in 4.0 mi SSE 4.6 mph - 0.01 in   Overcast
5:53 AM 42.1 °F 39.2 °F 41.0 °F 96% 29.64 in 2.5 mi SSE 4.6 mph - 0.01 in   Overcast
6:19 AM 42.8 °F 40.1 °F 41.0 °F 93% 29.62 in 3.0 mi SSE 4.6 mph - N/A Rain Light Rain
6:53 AM 42.8 °F - 41.0 °F 93% 29.62 in 3.0 mi Calm Calm - N/A   Overcast
7:53 AM 42.1 °F - 41.0 °F 96% 29.60 in 3.0 mi Calm Calm - 0.01 in   Overcast
8:53 AM 42.1 °F - 41.0 °F 96% 29.59 in 5.0 mi Calm Calm - N/A   Overcast
9:53 AM 42.8 °F 41.1 °F 39.2 °F 87% 29.58 in 10.0 mi NNW 3.5 mph - N/A Rain Light Rain
10:53 AM 42.8 °F - 41.0 °F 93% 29.57 in 10.0 mi Calm Calm - N/A Rain Light Rain
11:53 AM 42.8 °F 41.1 °F 41.0 °F 93% 29.54 in 10.0 mi NNW 3.5 mph - N/A Rain Light Rain
12:53 PM 42.8 °F 40.1 °F 42.8 °F 100% 29.52 in 10.0 mi NNW 4.6 mph - N/A Rain Light Rain
1:53 PM 42.8 °F 38.0 °F 41.0 °F 93% 29.48 in 7.0 mi NNW 8.1 mph - N/A Rain Light Rain
2:53 PM 42.8 °F 41.1 °F 41.0 °F 93% 29.47 in 6.0 mi North 3.5 mph - N/A Rain Light Rain
3:53 PM 41.0 °F 37.1 °F 39.2 °F 93% 29.45 in 6.0 mi WNW 5.8 mph - N/A Rain Light Rain
4:53 PM 41.0 °F 38.0 °F 39.2 °F 93% 29.44 in 9.0 mi NW 4.6 mph - N/A Rain Light Rain
5:53 PM 41.0 °F 38.0 °F 39.2 °F 93% 29.43 in 7.0 mi NW 4.6 mph - N/A Rain Light Rain
6:53 PM 39.9 °F - 39.0 °F 97% 29.43 in 7.0 mi Calm Calm - 0.05 in Rain Light Rain
7:53 PM 39.2 °F 37.0 °F 37.4 °F 93% 29.43 in 9.0 mi SE 3.5 mph - N/A Rain Light Rain
8:53 PM 39.2 °F - 37.4 °F 93% 29.43 in 9.0 mi Calm Calm - N/A Rain Light Rain
9:53 PM 39.0 °F - 37.9 °F 96% 29.43 in 10.0 mi Calm Calm - 0.02 in Rain Light Rain
10:20 PM 39.0 °F - 37.0 °F 93% 29.44 in 9.0 mi Calm Calm - 0.01 in Rain Light Rain
10:53 PM 37.9 °F 32.1 °F 37.0 °F 97% 29.44 in 10.0 mi WNW 8.1 mph - 0.02 in Rain Light Rain
11:13 PM 37.9 °F 32.1 °F 36.0 °F 93% 29.44 in 9.0 mi WNW 8.1 mph - 0.00 in Rain Light Rain
11:30 PM 37.9 °F 30.9 °F 36.0 °F 93% 29.44 in 10.0 mi WNW 10.4 mph - 0.00 in Rain Light Rain
11:53 PM 37.0 °F 30.4 °F 35.1 °F 93% 29.44 in 10.0 mi WNW 9.2 mph - 0.01 in Rain Light Rain